Regional Weather Roundup
Issued by NWS

Home | Current Version | Previous Version | Text Only | Print | Product List | Glossary Off
Versions: 1 2 3 4 5 6 7 8 9 10 11 12 13 14 15 16 17 18 19 20 21 22 23 24 25 26 27 28 29 30 31 32 33 34 35 36 37 38 39 40 41 42 43 44 45 46 47 48 49 50

000
ASUS45 KABQ 281201
RWRNM
NEW MEXICO REGIONAL WEATHER ROUNDUP
NATIONAL WEATHER SERVICE ALBUQUERQUE NM
600 AM MDT FRI APR 28 2017

NOTE: "FAIR" MEANS FEW OR NO CLOUDS BELOW 12,000 FEET AGL WITH NO
       SIGNIFICANT WEATHER OR OBSTRUCTIONS TO VISION.

      THIS PRODUCT IS RELEASED AS TWO VERSIONS.  ONE VERSION NEAR
      THE TOP OF THE HOUR CONTAINING PRELIMINARY DATA FROM ALBUQUERQUE
      AND OTHER STATIONS.  A FINAL VERSION WITH ADDITIONAL DATA IS
      ISSUED ABOUT 10 MINUTES AFTER THE HOUR.

NMZ501-503-504-510>518-281300-
NORTHWEST PLATEAU/NORTHCENTRAL MOUNTAINS

CITY           SKY/WX    TMP DP  RH WIND       PRES   REMARKS
FARMINGTON     CLOUDY    40  27  59 W14       29.75F WCI  32
6HR MIN TEMP:  40; 6HR MAX TEMP:  47;

LOS ALAMOS     CLOUDY    35  25  67 NE5       29.77F WCI  31
SANTA FE       FAIR      37  28  70 N16       29.74F WCI  28
6HR MIN TEMP:  37; 6HR MAX TEMP:  46;

TAOS             N/A     34  19  55 W5        29.77F WCI  30
ANGEL FIRE     LGT SNOW  28  26  94 CALM      29.78F

$$
NMZ402-403-502-505>509-281300-
WESTCENTRAL MOUNTAINS/SOUTHWEST MOUNTAINS

CITY           SKY/WX    TMP DP  RH WIND       PRES   REMARKS
GALLUP         CLOUDY    38  30  73 E13       29.78F WCI  30
6HR MIN TEMP:  38; 6HR MAX TEMP:  48;

GRANTS         CLOUDY    37  27  67 NW16      29.78F WCI  28
SILVER CITY    MOCLDY    57  37  47 NW3       29.77S

$$
NMZ407-409-411-412-281300-
SOUTHERN DESERTS

CITY           SKY/WX    TMP DP  RH WIND       PRES   REMARKS
DEMING         FAIR      62  36  37 W13       29.73F
6HR MIN TEMP:  61; 6HR MAX TEMP:  70;

LAS CRUCES     FAIR      64  38  38 W13       29.74F
HOLLOMAN AFB   MOCLDY    68  34  28 S9        29.72R
ALAMOGORDO     FAIR      64  32  29 S12       29.71R
T OR C         FAIR      58  28  32 CALM      29.68F
6HR MIN TEMP:  58; 6HR MAX TEMP:  68;


$$
NMZ519>523-281300-
CENTRAL VALLEYS/CENTRAL HIGHLANDS

CITY           SKY/WX    TMP DP  RH WIND       PRES   REMARKS
ALBUQUERQUE    MOCLDY    45  26  47 N10       29.75S
6HR MIN TEMP:  45; 6HR MAX TEMP:  56;

DOUBLE EAGLE   MOCLDY    37  27  65 NW9       29.76  WCI  31
MORIARTY ARPT  FAIR      30  24  81 CALM      29.77S
6HR MIN TEMP:  29; 6HR MAX TEMP:  51;

CLINES CORNERS MOCLDY    31  23  72 W9        29.77S WCI  23
6HR MIN TEMP:  27; 6HR MAX TEMP:  44;

BELEN          MOCLDY    39  27  62 NW6       29.74F WCI  35
6HR MIN TEMP:  38; 6HR MAX TEMP:  59;

SOCORRO        CLOUDY    51  26  37 N10G17    29.73R
6HR MIN TEMP:  50; 6HR MAX TEMP:  66;


$$
NMZ524>526-539-540-281300-
SOUTHCENTRAL MOUNTAINS

CITY           SKY/WX    TMP DP  RH WIND       PRES   REMARKS
RUIDOSO        NOT AVBL

$$
NMZ527>531-281300-
NORTHEAST HIGHLANDS/NORTHEAST PLAINS

CITY           SKY/WX    TMP DP  RH WIND       PRES   REMARKS
LAS VEGAS      FAIR      30  20  66 S5        29.74R WCI  25
6HR MIN TEMP:  30; 6HR MAX TEMP:  44;

RATON          FAIR      36  17  46 VRB5      29.70R WCI  32
6HR MIN TEMP:  35; 6HR MAX TEMP:  47;

CLAYTON        MOCLDY    41  35  79 W8        29.70R
6HR MIN TEMP:  39; 6HR MAX TEMP:  47;


$$
NMZ532>537-281300-
EASTCENTRAL PLAINS

CITY           SKY/WX    TMP DP  RH WIND       PRES   REMARKS
SANTA ROSA     FAIR      42  27  57 NW8       29.72R
TUCUMCARI      FAIR      44  35  70 CALM      29.67S
6HR MIN TEMP:  42; 6HR MAX TEMP:  59;

CANNON AFB     FAIR      46  26  45 N10       29.69S
6HR MIN TEMP:  46; 6HR MAX TEMP:  58;

CLOVIS AIRPORT FAIR      43  27  52 NW5       29.69S

$$
NMZ028-029-538-281300-
SOUTHEAST PLAINS

CITY           SKY/WX    TMP DP  RH WIND       PRES   REMARKS
ROSWELL        FAIR      54  30  40 NW7       29.70
6HR MIN TEMP:  53; 6HR MAX TEMP:  72;

ARTESIA        FAIR      54  32  43 NW9       29.68F
CARLSBAD       FAIR      63  35  35 MISG      29.66R
6HR MIN TEMP:  62; 6HR MAX TEMP:  81;

HOBBS          CLEAR     54  37  54 N6        29.68R


$$




USA.gov is the U.S. government's official web portal to all federal, state and local government web resources and services.